Content
SEND FEEDBACK

Daily
Averages
Monthly
Summary
United States of America

UPI, GUAM


Home > North America > United States > Guam
Elevation: 53 feet     Latitude: 13 34N     Longitude: 144 55E

WEATHER
 
SELECT A DAY
Number of Records: 215,487;   Date Range: 1/1/95 - 12/16/14
 
SHARE

PRINT THIS DATA

[ ← Previous Day ]
WEATHER ALMANAC - NOVEMBER 21, 2013
[ Next Day → ]
[ °C ]   °F
Weather ElementAverageHighLow
Temperature83 °F89.6 °F (12:40 pm)78.1 °F (3:54 am)
Dewpoint75.8 °F78.1 °F (7:54 am)73 °F (9:54 pm)
Humidity79.3 %94 % (1:54 am)62 % (12:40 pm)
Barometer29.85 in29.88 in (8:54 am)29.80 in (2:54 pm)
Wind Speed11.3 mph16.1 mph (12:52 pm)
Wind Gust20.7 mph (9:54 pm)
Weather ElementAverage
Visibility9.6 mi
Wind DirectionENE (76.7 °)

Weather ElementTotal
Precipitation0.47 in
Cooling Degree Days18.9 (Base 65)
Growing Degree Days33.9 (Base 50)
Averaged from 27 records on November 21, 2013
WEATHER CONDITIONS BREAKOUT
WIND DIRECTION BREAKOUT
WEATHER BY HOUR - NOVEMBER 21, 2013
[ °C ]   °F
Local TimeTemperatureDewpointHumidityBarometerVisibilityWind DirectionWind SpeedGust SpeedPrecipitationEventsConditions
1:54 AM79.0 °F77.0 °F94 %29.84 in10.0 miNE (50°)8.1 mph0.00 inRainLight Rain
2:39 AM78.8 °F77.0 °F94 %29.86 in2.5 miSE (140°)4.6 mph0.09 inRainHeavy Rain
2:50 AM78.8 °F77.0 °F94 %29.86 in10.0 miEast (100°)4.6 mph0.16 inOvercast
2:54 AM79.0 °F77.0 °F94 %29.84 in10.0 miESE (110°)4.6 mph0.16 inOvercast
3:54 AM78.1 °F75.9 °F93 %29.82 in6.0 miENE (60°)10.4 mph0.04 inRainHeavy Rain
4:54 AM79.0 °F75.9 °F90 %29.82 in10.0 miENE (60°)5.8 mph0.02 inMostly Cloudy
5:54 AM80.1 °F77.0 °F90 %29.83 in10.0 miENE (70°)8.1 mphScattered Clouds
6:54 AM80.1 °F77.0 °F90 %29.85 in10.0 miENE (70°)10.4 mph0.00 inClear
7:54 AM82.0 °F78.1 °F88 %29.87 in10.0 miEast (80°)10.4 mphClear
8:54 AM84.0 °F78.1 °F82 %29.88 in10.0 miENE (70°)13.8 mphPartly Cloudy
9:54 AM86.0 °F78.1 °F77 %29.88 in10.0 miENE (70°)13.8 mphMostly Cloudy
10:54 AM86.0 °F75.9 °F72 %29.87 in10.0 miEast (80°)15.0 mph0.00 inScattered Clouds
11:54 AM87.1 °F75.9 °F69 %29.85 in10.0 miEast (90°)13.8 mphMostly Cloudy
12:12 PM87.8 °F75.2 °F66 %29.86 in10.0 miENE (70°)12.7 mphScattered Clouds
12:40 PM89.6 °F75.2 °F62 %29.85 in10.0 miEast (90°)15.0 mphMostly Cloudy
12:52 PM87.8 °F75.2 °F66 %29.85 in10.0 miEast (80°)16.1 mphScattered Clouds
12:54 PM88.0 °F75.0 °F65 %29.83 in10.0 miEast (80°)16.1 mphScattered Clouds
2:54 PM88.0 °F75.0 °F65 %29.80 in10.0 miENE (70°)16.1 mphScattered Clouds
3:54 PM82.0 °F77.0 °F85 %29.80 in10.0 miEast (90°)8.1 mphMostly Cloudy
4:54 PM84.0 °F75.0 °F74 %29.81 in10.0 miENE (70°)11.5 mphClear
5:54 PM82.9 °F75.0 °F77 %29.83 in10.0 miENE (60°)13.8 mphPartly Cloudy
6:54 PM82.9 °F75.0 °F77 %29.84 in10.0 miENE (60°)11.5 mphPartly Cloudy
7:54 PM82.0 °F75.0 °F79 %29.86 in10.0 miENE (70°)12.7 mphClear
8:54 PM82.0 °F73.9 °F76 %29.86 in10.0 miENE (70°)11.5 mphClear
9:54 PM82.0 °F73.0 °F74 %29.86 in10.0 miENE (70°)13.8 mph20.7 mphPartly Cloudy
10:54 PM82.0 °F73.0 °F74 %29.86 in10.0 miENE (70°)10.4 mphPartly Cloudy
11:54 PM82.0 °F73.0 °F74 %29.86 in10.0 miENE (70°)11.5 mphPartly Cloudy
Hourly data recorded from PGUM, located miles away from Upi, Guam







STORIES FROM OUR PARTNERS